STARLINK-38078, 69744

Orbit data source: Space-Track

STARLINK-38078, 69744 is a payload satellite owned by SpaceX/Seattle (US) in SSO that was launched on Thu, 02 Jul 2026 UTC via an FALCON 9 launch vehicle from the Air Force Western Test Range (AFWTR). Payload-class satellites include a variety of spacecraft equipped with specific instruments for various scientific and technological missions. These include communications satellites like Starlink; space stations such as the ISS; scientific satellites like the Hubble; Earth observation satellites from companies like Planet Labs, Umbra, and HawkEye 360; GPS; miniature CubeSats for education and research; and military/defense satellites.

Loading next visibility...
Identifier
69744, 2026-150F
Orbit
SSO
Country
Flag of USUS
Related business
Manufacturer
SpaceX/Seattle
Mission
Operational spacecraft
Bus & Motor
STARLINK V2MO, Unknown motor
Mass
575 kg wet, ~530 kg dry
Launch date (UTC)
2026-07-02 (3 weeks ago)
Launch vehicle
FALCON 9
Launch site
Air Force Western Test Range (AFWTR)
Object type
Payload
Rocket body
Debris
Shape & HBR
Unknown shape, 17.7 m
Radar Cross Section
Large (>1 m²)

Expand to show TLE details & history
Last TLE update: 1 day ago

TLE from 1 day ago
0 STARLINK-38078
1 69744U 26150F   26202.03004114  .00270040  00000-0  13641-2 0  9999
2 69744  97.2856  40.7402 0002182  57.2378 302.9101 15.80867225  4241
Epoch: 2026-07-21T00:43Z
TLE epoch observation values (Epoch: 2026-07-21T00:43:15.554Z)
Latitude
0.00005°
Longitude
91.1198°
Altitude
330.368 km
Speed
7.711 km/s
True Right ascension
02h 42m 57s
True Declination
0° 00' 00"
Sunlit
Object was in daylight at epoch
Visualization orbit readout
Latitude
Unknown
Longitude
Unknown
Altitude
Unknown
Speed
Unknown
Apparent Right ascension
Unknown
Apparent Declination
Unknown
Sunlit
N/A
Visualization observer readout
Local Sidereal Time
18:36:44
Azimuth
Unknown
Elevation
Unknown
Doppler factor
Unknown
Orbital elements
Apogee altitude
326.33 km
Perigee altitude
323.404 km
Semi-major axis
6,703.004 km
Eccentricity
0.00022
Inclination
97.2856°
RAAN
40.7402°
Arg. of periapsis
57.2378°
True anomaly
302.88911°
Mean anomaly
302.9101°
Eccentric anomaly
302.8996°
Mean motion
3.95493 °/min
Orbital period
91.03 mins
BSTAR
0.0013641
Loading maneuver chart data...
Computing Atmospheric mass density...
Loading historical data...
Loading historical data...
Loading historical data...
Loading historical data...
Loading historical data...
Loading historical data...
Loading historical data...

Documentation

Showing up to 5 results
|